Location: Bílinka
(49.3579°N, 14.3767°E)
Time: 22:24:43
(UTC+00:00)

PSLV R/B - Pass Details

Date: 27 March 2025
Orbit: 410 x 442 km, 97.7° (Epoch: 28 April)

Event Time Altitude Azimuth Distance (km) Brightness Sun altitude
Exits shadow 19:18:48 20° 44° (NE) 1,090 5.2 -18.3°
Drops below altitude 10° 19:20:37 10° 14° (NNE) 1,565 6.3 -18.5°
Sets 19:22:55 0° 359° (N) 2,430 7.5 -18.8°
